Location: R�o Medio
(42.4667°N, 3.0167°W)
Time: 06:25:59
(UTC+00:00)

STARLINK-1054 - Pass Details

Date: 27 February 2020
Orbit: 548 x 551 km, 53.0° (Epoch: 28 March)

Event Time Altitude Azimuth Distance (km) Brightness Sun altitude
Rises 18:56:21 0° 241° (WSW) 2,706 8.3 -11.4°
Reaches altitude 10° 18:58:35 10° 244° (WSW) 1,816 7.4 -11.8°
Maximum altitude 19:02:41 64° 326° (NNW) 610 4.0 -12.6°
Enters shadow 19:06:21 13° 48° (NE) 1,645 5.6 -13.3°
